This demonstration page uses our WeatherBlox Daily Observations layout. Learn more.

41.55636, -103.73856

Hourly Observations for June 13, 2017

Temp ( °F °C ) Dew Point ( °F °C ) Humidity (%) Winds ( mph kmh ) Pressure ( in mb ) Visibility ( mi km ) Precip ( " mm )
12:53 am 00:53 Clear 61 16.1 44 6.7 54 54 NNW 18 30 29.59 1002 10 16.0934 0 0
1:53 am 01:53 Clear 59 15 42 5.6 54 54 NNW 16 26 29.63 1003 10 16.0934 0 0
2:53 am 02:53 Clear 59 15 36 2.2 42 42 N 17 28 29.63 1003 10 16.0934 0 0
3:53 am 03:53 Clear 55 12.8 37 2.8 51 51 WNW 6 9 29.65 1004 10 16.0934 0 0
4:53 am 04:53 Mostly Clear 53 11.7 35 1.7 51 51 SW 6 9 29.69 1006 10 16.0934 0 0
5:53 am 05:53 Sunny 50 10 39 3.9 66 66 WNW 6 9 29.7 1006 10 16.0934 0 0
6:53 am 06:53 Sunny 55 12.8 38 3.3 53 53 WNW 9 15 29.72 1006 10 16.0934 0 0
7:53 am 07:53 Sunny 59 15 37 2.8 44 44 WNW 7 11 29.71 1006 10 16.0934 0 0
8:53 am 08:53 Sunny 62 16.7 36 2.2 38 38 WNW 6 9 29.7 1006 10 16.0934 0 0
9:53 am 09:53 Sunny 66 18.9 38 3.3 36 36 WSW 5 7 29.68 1005 10 16.0934 0 0
10:53 am 10:53 Sunny 69 20.6 39 3.9 33 33 VRB 6 9 29.67 1005 10 16.0934 0 0
11:53 am 11:53 Mostly Sunny 72 22.2 39 3.9 30 30 VRB 6 9 29.66 1004 10 16.0934 0 0
12:53 pm 12:53 Mostly Sunny 72 22.2 38 3.3 29 29 VRB 5 7 29.65 1004 10 16.0934 0 0
1:53 pm 13:53 Sunny 75 23.9 37 2.8 25 25 SE 7 11 29.64 1004 10 16.0934 0 0
2:53 pm 14:53 Sunny 78 25.6 39 3.9 25 25 SE 8 13 29.62 1003 10 16.0934 0 0
3:24 pm 15:24 Mostly Sunny 72 22 36 2 27 27 N 12 19 29.53 1000 10 16.0934 0 0
3:53 pm 15:53 Cloudy 70 21.1 42 5.6 37 37 N 8 13 29.66 1004 10 16.0934 0 0
4:53 pm 16:53 Cloudy with Light Rain 74 23.3 39 3.9 28 28 Calm 29.65 1004 10 16.0934 0 0.0254
5:53 pm 17:53 Mostly Sunny 75 23.9 39 3.9 27 27 VRB 5 7 29.65 1004 10 16.0934 0 0.0254
6:53 pm 18:53 Sunny 74 23.3 36 2.2 25 25 W 13 20 29.65 1004 10 16.0934 0 0
7:53 pm 19:53 Sunny 69 20.6 39 3.9 33 33 WNW 7 11 29.67 1005 10 16.0934 0 0
8:53 pm 20:53 Clear 65 18.3 39 3.9 39 39 WNW 10 17 29.67 1005 10 16.0934 0 0
9:53 pm 21:53 Clear 64 17.8 38 3.3 38 38 W 12 19 29.69 1005 10 16.0934 0 0
10:53 pm 22:53 Clear 64 17.8 37 2.8 37 37 W 21 33 29.7 1006 10 16.0934 0 0
11:53 pm 23:53 Clear 61 16.1 38 3.3 43 43 W 20 31 29.73 1007 10 16.0934 0 0

Powered by AerisWeather